Location: Unspecified
(0.0000°N, 0.0000°E)
Time: 16:56:04
(UTC+00:00)

Vanguard 2 Rocket - Pass Details

Date: 13 December 2018
Orbit: 554 x 3326 km, 32.9° (Epoch: 17 June)

Event Time Altitude Azimuth Distance (km) Brightness Sun altitude
Rises 11:05:47 0° 344° (NNW) 3,852 9.9 64.0°
Reaches altitude 10° 11:10:17 10° 13° (NNE) 3,415 9.7 64.5°
Maximum altitude 11:14:04 13° 38° (NE) 3,606 10.0 64.9°
Drops below altitude 10° 11:18:41 10° 63° (ENE) 4,357 10.5 65.3°
Sets 11:26:22 0° 86° (E) 6,111 11.2 65.9°
